SL-8 R/B (21088 NORAD) Tracking and Keplerian Element Data

This shows tracking and keplerian element data for the satellite.

Feedback or suggestion? Click here.




ElementValue
Catalog21088
NameSL-8 R/B
Epoch Orbit40019
Epoch Day345.16214471
Epoch Year2018
RAAN337.3232
Inclination82.941
Eccentricity0.0021259
Argument of Perigee241.4626
Mean Anonmoly167.1838
Mean Motion13.77103488
Decay Rate1.08E-06
L11 21088U 91006B 18345.16214471 .00000108 00000-0 94033-4 0 9994
L22 21088 82.9410 337.3232 0021259 241.4626 167.1838 13.77103488400192

Live tracking and technical data element details for SL-8 R/B (NORAD 21088). SL-8 R/B can be tracked NOW for your location showing map with azimuth and elevation plus other details from your city location.

Track the satellite on the map from your city or location and see movement details for azimuth, elevation, latitude, longitude, range, height, and movement on the map or in text.







IsCatalogInMostPopularTable: catalog: 21088, numindb: 37
Update: records affected: 1



GetName: 21088 SL-8 R/B

Hit Count: updated at: Thu, 13 Dec 2018 03:26:51 GMT